Cascade, ID (83611)

6:08 PM MDT on March 25, 2017 (GMT -0600)
Tamarack Resort | | Change Station
Active Advisory: Flood Warning

Elev 5000 ft 44.68 °N, 116.12 °W | Updated 47 seconds ago

Mostly Cloudy
Mostly Cloudy
44.2 °F
Feels Like 44 °F
N
1.3
Wind Variable Wind from SW
Gusts 2.7 mph

Today
High -- | Low -- °F
--% Chance of Precip.
Yesterday
High -- | Low -- °F
Precip. -- in
Pressure 30.03 in
Visibility 10.0 miles
Clouds Scattered Clouds 4600 ft
Overcast 7500 ft
Windchill 44 °F
Dew Point 29 °F
Humidity 54%
Rainfall 0.02 in
Snow Depth Not available.
7:37 AM 8:03 PM
Waning Crescent, 6% visible
METAR KMYL 252351Z AUTO 15006KT 10SM SCT046 OVC075 04/M03 A2998 RMK AO2 SLP168 T00441028 10050 20017 55000
Pressure 30.03 in
Visibility 10.0 miles
Clouds Scattered Clouds 4600 ft
Overcast 7500 ft
Windchill 44 °F
Dew Point 29 °F
Humidity 54%
Rainfall 0.02 in
Snow Depth Not available.
7:37 AM 8:03 PM
Waning Crescent, 6% visible
METAR KMYL 252351Z AUTO 15006KT 10SM SCT046 OVC075 04/M03 A2998 RMK AO2 SLP168 T00441028 10050 20017 55000

Get Your Daily Forecast Email!

Thanks for signing up!

Be on the lookout for a verification email in your inbox.

You'll start receiving severe weather alerts in your inbox..

×

10-Day Weather Forecast

Almanac

Astronomy

Mar. 25, 2017 Rise Set
Actual Time
Civil Twilight
Nautical Twilight
Astronomical Twilight
Moon
Length of Visible Light
Length of Day
Tomorrow will be .
, % of the Moon is Illuminated

Today's Extremes

State Highs State Lows

Community

WunderPhotos

Upload Photos

1,962,540 photos uploaded!

WunderBlog® & News

Nearby

Air Quality

  Air Quality AQ Index Pollutant
Not available.

Snow Depth

Station Depth Elevation

Earthquake Activity

City Distance Mag. Time & Date
Minimum magnitude displayed is 2.5.

Earthquake Activity

City Distance Mag. Time & Date
Minimum magnitude displayed is 2.5.

Coastal Water Temperatures

Place Temperature

Stations

Nearby Weather Stations

Station Location Temp. Windchill Dew Point Humidity Wind Precip. Elev Updated Type
                   

Watches & Warnings

Flood Warning
Issued: 1:59 PM MDT Mar. 25, 2017 – National Weather Service

The Flood Warning continues for
the Snake River near Weiser.
* Until Tuesday... or until the warning is cancelled.
* At 1:00 PM Saturday the stage was 12.3 feet.
* Minor flooding is occurring and minor flooding is forecast.
* Flood stage is 12.0 feet.
* Forecast... the river will crest near 12.4 feet late today. The
river will fall below flood stage Tuesday evening.
* Impact... at 12.0 feet... flooding of agricultural land near the
river is likely in Malheur County, Oregon, and in Washington
County, Idaho. Mortimer Road in Weiser will be flooded.


Lat... Lon 4431 11703 4417 11686 4405 11688 4406 11705
      4427 11714